Content
SEND FEEDBACK

Daily
Averages
Monthly
Summary
Switzerland

ZÜRICH, SWITZERLAND


Home > Europe > Switzerland
Elevation: 1867 feet     Latitude: 47 23N     Longitude: 008 34E

WEATHER
 
SELECT A DAY
Number of Records: 290,687;   Date Range: 7/1/96 - 12/16/14
 
SHARE

PRINT THIS DATA

[ ← Previous Day ]
WEATHER ALMANAC - JULY 20, 2014
[ Next Day → ]
[ °C ]   °F
Weather ElementAverageHighLow
Temperature71.2 °F78.8 °F (10:50 am)60.8 °F (10:50 pm)
Dewpoint60.8 °F64.4 °F (8:50 am)57.2 °F (12:50 pm)
Humidity70.9 %94 % (11:50 pm)53 % (12:50 pm)
Barometer29.91 in29.98 in (12:50 pm)29.86 in (1:50 am)
Wind Speed4.9 mph15 mph (11:50 am)
Weather ElementAverage
Wind DirectionSSE (165.2 °)

Weather ElementTotal
Precipitation---
Cooling Degree Days4.8 (Base 65)
Growing Degree Days19.8 (Base 50)
Averaged from 21 records on July 20, 2014
WEATHER CONDITIONS BREAKOUT
WIND DIRECTION BREAKOUT
WEATHER BY HOUR - JULY 20, 2014
[ °C ]   °F
Local TimeTemperatureDewpointHumidityBarometerVisibilityWind DirectionWind SpeedGust SpeedPrecipitationEventsConditions
1:50 AM71.6 °F62.6 °F73 %29.86 inSE (130°)3.5 mph
3:50 AM66.2 °F62.6 °F88 %29.86 inVariable1.2 mph
5:50 AM66.2 °F60.8 °F83 %29.86 inVariable1.2 mphPartly Cloudy
6:50 AM68.0 °F62.6 °F83 %29.89 inSE (140°)3.5 mphPartly Cloudy
7:50 AM69.8 °F62.6 °F78 %29.92 inSE (130°)3.5 mph
8:50 AM75.2 °F64.4 °F69 %29.92 inSE (130°)4.6 mph
9:50 AM77.0 °F60.8 °F57 %29.92 inVariable2.3 mph
10:50 AM78.8 °F60.8 °F54 %29.95 inWSW (250°)3.5 mphPartly Cloudy
11:50 AM77.0 °F59.0 °F54 %29.95 inNW (310°)15.0 mphPartly Cloudy
12:50 PM75.2 °F57.2 °F53 %29.98 inNNW (330°)11.5 mphMostly Cloudy
1:50 PM73.4 °F59.0 °F61 %29.95 inNNW (340°)8.1 mphPartly Cloudy
2:50 PM73.4 °F60.8 °F65 %29.98 inNorth (350°)4.6 mphPartly Cloudy
3:50 PM73.4 °F60.8 °F65 %29.92 inNNE (20°)4.6 mphPartly Cloudy
4:50 PM73.4 °F60.8 °F65 %29.89 inVariable2.3 mphPartly Cloudy
5:50 PM73.4 °F60.8 °F65 %29.89 inNNE (20°)4.6 mphScattered Clouds
6:50 PM73.4 °F60.8 °F65 %29.86 inNorth (360°)3.5 mphPartly Cloudy
7:50 PM69.8 °F62.6 °F78 %29.86 inNorth (350°)4.6 mphMostly Cloudy
8:50 PM69.8 °F60.8 °F73 %29.86 inVariable1.2 mphMostly Cloudy
9:50 PM68.0 °F60.8 °F78 %29.89 inCalmMostly Cloudy
10:50 PM60.8 °F57.2 °F88 %29.98 inNW (310°)15.0 mphMostly Cloudy
11:50 PM60.8 °F59.0 °F94 %29.98 inWNW (300°)4.6 mphOvercast
Hourly data recorded from LSMD, located miles away from Zürich, Switzerland







STORIES FROM OUR PARTNERS